This demonstration page uses our WeatherBlox Daily Observations layout. Learn more.

Left ArrowRight Arrow

41.12389, -100.76542

Hourly Observations for July 3, 2018

Temp ( °F °C ) Dew Point ( °F °C ) Humidity (%) Winds ( mph kmh ) Pressure ( in mb ) Visibility ( mi km ) Precip ( " mm )
12:53 am 00:53 Mostly Clear 79 26.1 73 22.8 82 82 ENE 9 15 29.85 1011 10 16 0.00 0.00
1:53 am 01:53 Partly Cloudy 77 25 73 22.8 88 88 SSE 13 20 29.84 1010 10 16 0.00 0.00
2:53 am 02:53 Clear 75 23.9 72 22.2 90 90 SE 10 17 29.82 1010 10 16 0.00 0.00
3:53 am 03:53 Clear 74 23.3 72 22.2 94 94 SSE 8 13 29.81 1010 10 16 0.00 0.00
4:53 am 04:53 Clear 73 22.8 71 21.7 94 94 S 7 11 29.80 1009 10 16 0.00 0.00
5:53 am 05:53 Clear 73 22.8 71 21.7 94 94 S 8 13 29.80 1009 10 16 0.00 0.00
6:53 am 06:53 Sunny 73 22.8 72 22.2 96 96 S 15 24 29.79 1009 9 14 0.00 0.00
7:53 am 07:53 Sunny 74 23.3 73 22.8 97 97 S 12 19 29.79 1009 9 14 0.00 0.00
8:53 am 08:53 Sunny 75 23.9 73 22.8 94 94 SSW 14 22 29.80 1009 10 16 0.00 0.00
9:53 am 09:53 Sunny 79 26.1 72 22.2 79 79 SSW 15 24 29.79 1009 10 16 0.00 0.00
10:53 am 10:53 Sunny 84 28.9 73 22.8 70 70 S 9 15 29.78 1008 10 16 0.00 0.00
11:53 am 11:53 Sunny 87 30.6 71 21.7 59 59 S 14 22 29.78 1009 10 16 0.00 0.00
12:53 pm 12:53 Sunny 90 32.2 70 21.1 52 52 S 12 19 29.79 1009 10 16 0.00 0.00
1:53 pm 13:53 Sunny 92 33.3 70 21.1 49 49 SSW 12 19 29.80 1009 10 16 0.00 0.00
2:53 pm 14:53 Sunny 93 33.9 68 20 44 44 S 10 17 29.79 1009 10 16 0.00 0.00
3:53 pm 15:53 Sunny 93 33.9 69 20.6 46 46 S 14 22 29.79 1009 10 16 0.00 0.00
4:53 pm 16:53 Sunny 92 33.3 69 20.6 47 47 SSE 13 20 29.79 1009 10 16 0.00 0.00
5:53 pm 17:53 Sunny 92 33.3 69 20.6 47 47 SSE 14 22 29.79 1009 10 16 0.00 0.00
6:53 pm 18:53 Sunny 90 32.2 68 20 48 48 SSE 13 20 29.78 1009 10 16 0.00 0.00
7:53 pm 19:53 Sunny 87 30.6 69 20.6 55 55 SSE 12 19 29.80 1009 10 16 0.00 0.00
8:53 pm 20:53 Sunny 81 27.2 71 21.7 72 72 SE 8 13 29.83 1010 10 16 0.00 0.00
9:53 pm 21:53 Clear 77 25 71 21.7 82 82 ESE 8 13 29.84 1010 10 16 0.00 0.00
10:53 pm 22:53 Clear 74 23.3 71 21.7 91 91 SE 8 13 29.88 1012 10 16 0.00 0.00
11:53 pm 23:53 Mostly Cloudy 79 26.1 63 17.2 58 58 W 12 19 29.94 1014 10 16 0.00 0.00

Powered by AerisWeather